| time (UTC) | temp C | wind direction | speed KPH | gust KPH | rain 1hr cm | rain 24hr cm | rain mn cm | humidity % | barometer mb |
| 20260502123353 | 28 | 293 | 6.4 | 11.3 | 0.00 | 0.00 | 0.00 | 67 | 1013.9 |
| 20260502114300 | 27 | 180 | 11.3 | 11.3 | 0.00 | 0.00 | 0.00 | 66 | 1013.2 |
| 20260502113756 | 27 | 158 | 11.3 | 11.3 | 0.00 | 0.00 | 0.00 | 66 | 1012.9 |
| 20260502071212 | 30 | 225 | 11.3 | 20.9 | 0.00 | 0.00 | 0.00 | 57 | 1012.2 |
| 20260502061620 | 31 | 180 | 11.3 | 17.7 | 0.00 | 0.00 | 0.00 | 56 | 1012.5 |
| 20260502060133 | 31 | 180 | 11.3 | 17.7 | 0.00 | 0.00 | 0.00 | 56 | 1012.5 |
| 20260502054110 | 31 | 180 | 0.0 | 0.0 | 0.00 | 0.00 | 0.00 | 56 | 1012.5 |
| 20260502023610 | 33 | 225 | 0.0 | 0.0 | 0.00 | 0.00 | 0.00 | 67 | 1010.8 |
| 20260502021557 | 33 | 203 | 0.0 | 0.0 | 0.00 | 0.00 | 0.00 | 68 | 1010.5 |
| 20260502020011 | 33 | 203 | 0.0 | 0.0 | 0.00 | 0.00 | 0.00 | 67 | 1010.2 |
| 20260502015531 | 33 | 225 | 0.0 | 11.3 | 0.00 | 0.00 | 0.00 | 67 | 1010.2 |
| 20260502011422 | 33 | 113 | 0.0 | 0.0 | 0.00 | 0.00 | 0.00 | 64 | 1009.5 |
| 20260502004036 | 36 | 270 | 0.0 | 11.3 | 0.00 | 0.00 | 0.00 | 61 | 1008.8 |
| 20260502002028 | 36 | 203 | 11.3 | 35.4 | 0.00 | 0.00 | 0.00 | 59 | 1008.5 |
| 20260502001500 | 37 | 113 | 11.3 | 20.9 | 0.00 | 0.00 | 0.00 | 59 | 1008.1 |
| 20260501231519 | 40 | 113 | 17.7 | 40.2 | 0.00 | 0.00 | 0.00 | 52 | 1007.4 |
| 20260501212912 | 47 | 180 | 11.3 | 17.7 | 0.00 | 0.00 | 0.00 | 37 | 1007.8 |
| 20260501204839 | 47 | 180 | 17.7 | 17.7 | 0.00 | 0.00 | 0.00 | 37 | 1008.5 |
| 20260501195737 | 47 | 203 | 11.3 | 20.9 | 0.00 | 0.00 | 0.00 | 38 | 1009.5 |
| 20260501192222 | 47 | 225 | 17.7 | 20.9 | 0.00 | 0.00 | 0.00 | 37 | 1010.5 |
| 20260501184156 | 47 | 180 | 17.7 | 20.9 | 0.00 | 0.00 | 0.00 | 39 | 1011.2 |
| 20260501182641 | 46 | 180 | 20.9 | 20.9 | 0.00 | 0.00 | 0.00 | 40 | 1011.2 |
| 20260501174604 | 43 | 203 | 17.7 | 20.9 | 0.00 | 0.00 | 0.00 | 42 | 1011.8 |